This demonstration page uses our WeatherBlox Daily Observations layout. Learn more.

Left ArrowRight Arrow

53.62937, 11.41316

Hourly Observations for December 19, 2021

Temp ( °F °C ) Dew Point ( °F °C ) Humidity (%) Winds ( mph kmh ) Pressure ( in mb ) Visibility ( mi km ) Precip ( " mm )
12:20 am 00:20 Cloudy 45 7 41 5 87 87 W 12 19 30.36 1028 30 48 N/A
12:50 am 00:50 Cloudy 45 7 41 5 87 87 W 14 22 30.36 1028 30 48 N/A
1:20 am 01:20 Cloudy 45 7 41 5 87 87 W 17 28 30.33 1027 30 48 N/A
1:50 am 01:50 Cloudy 45 7 41 5 87 87 W 17 28 30.30 1026 30 48 N/A
2:20 am 02:20 Cloudy 45 7 41 5 87 87 W 16 26 30.30 1026 30 48 N/A
2:50 am 02:50 Cloudy 45 7 41 5 87 87 W 15 24 30.30 1026 30 48 N/A
3:20 am 03:20 Cloudy 45 7 41 5 87 87 WNW 15 24 30.30 1026 30 48 N/A
3:50 am 03:50 Cloudy 45 7 41 5 87 87 WNW 18 30 30.30 1026 30 48 N/A
4:20 am 04:20 Cloudy 45 7 41 5 87 87 WNW 16 26 30.30 1026 30 48 N/A
4:50 am 04:50 Mostly Cloudy 43 6 41 5 93 93 WNW 13 20 30.30 1026 4 6 N/A
5:20 am 05:20 Mostly Cloudy 45 7 41 5 87 87 WNW 13 20 30.27 1025 30 48 N/A
5:50 am 05:50 Mostly Cloudy 45 7 41 5 87 87 WNW 14 22 30.27 1025 30 48 N/A
6:20 am 06:20 Mostly Cloudy 45 7 41 5 87 87 WNW 12 19 30.27 1025 30 48 N/A
6:50 am 06:50 Mostly Cloudy 45 7 41 5 87 87 WNW 13 20 30.24 1024 30 48 N/A
7:20 am 07:20 Cloudy 45 7 41 5 87 87 WNW 12 19 30.24 1024 30 48 N/A
7:50 am 07:50 Cloudy 45 7 41 5 87 87 WNW 14 22 30.24 1024 30 48 N/A
8:20 am 08:20 Cloudy 45 7 41 5 87 87 WNW 13 20 30.24 1024 30 48 N/A
8:50 am 08:50 Cloudy 45 7 41 5 87 87 WNW 14 22 30.24 1024 30 48 N/A
9:20 am 09:20 Mostly Cloudy 45 7 41 5 87 87 WNW 12 19 30.21 1023 30 48 N/A
9:50 am 09:50 Mostly Cloudy 46 8 41 5 82 82 WNW 14 22 30.21 1023 30 48 N/A
10:20 am 10:20 Mostly Cloudy 46 8 41 5 82 82 WNW 14 22 30.21 1023 30 48 N/A
10:50 am 10:50 Cloudy 46 8 41 5 82 82 WNW 14 22 30.21 1023 30 48 N/A
11:20 am 11:20 Cloudy 46 8 41 5 82 82 WNW 15 24 30.21 1023 30 48 N/A
11:50 am 11:50 Mostly Cloudy 46 8 41 5 82 82 WNW 12 19 30.18 1022 30 48 N/A
12:20 pm 12:20 Mostly Cloudy 46 8 41 5 82 82 WNW 13 20 30.18 1022 30 48 N/A
12:50 pm 12:50 Mostly Cloudy 46 8 41 5 82 82 WNW 14 22 30.15 1021 30 48 N/A
1:20 pm 13:20 Mostly Cloudy 48 9 41 5 76 76 WNW 15 24 30.15 1021 30 48 N/A
1:50 pm 13:50 Mostly Cloudy 46 8 39 4 76 76 WNW 14 22 30.15 1021 30 48 N/A
2:20 pm 14:20 Mostly Cloudy 46 8 39 4 76 76 WNW 14 22 30.15 1021 30 48 N/A
2:50 pm 14:50 Mostly Cloudy 46 8 39 4 76 76 WNW 13 20 30.15 1021 30 48 N/A
3:20 pm 15:20 Cloudy 46 8 39 4 76 76 NW 13 20 30.15 1021 30 48 N/A
3:50 pm 15:50 Cloudy 46 8 39 4 76 76 NW 12 19 30.15 1021 30 48 N/A
4:20 pm 16:20 Cloudy 46 8 37 3 71 71 NW 10 17 30.15 1021 30 48 N/A
4:50 pm 16:50 Partly Cloudy 45 7 37 3 76 76 NNW 12 19 30.15 1021 30 48 N/A
5:20 pm 17:20 Mostly Clear 45 7 37 3 76 76 NNW 10 17 30.18 1022 30 48 N/A
5:50 pm 17:50 Mostly Clear 43 6 32 0 66 66 N 10 17 30.21 1023 7 11 N/A
6:20 pm 18:20 Mostly Clear 41 5 30 -1 66 66 NNW 7 11 30.21 1023 7 11 N/A
6:50 pm 18:50 Mostly Clear 39 4 30 -1 70 70 NW 6 9 30.21 1023 7 11 N/A
7:20 pm 19:20 Mostly Clear 37 3 28 -2 70 70 NNW 6 9 30.21 1023 7 11 N/A
7:50 pm 19:50 Mostly Clear 37 3 28 -2 70 70 NNW 7 11 30.21 1023 7 11 N/A
8:20 pm 20:20 Mostly Clear 37 3 28 -2 70 70 NNW 5 7 30.21 1023 7 11 N/A
9:20 pm 21:20 Mostly Clear 36 2 28 -2 75 75 NW 3 6 30.24 1024 30 48 N/A
9:50 pm 21:50 Mostly Clear 36 2 28 -2 75 75 W 3 6 30.24 1024 30 48 N/A
10:50 pm 22:50 Mostly Clear 34 1 28 -2 81 81 W 5 7 30.24 1024 30 48 N/A
11:20 pm 23:20 Mostly Clear 34 1 27 -3 75 75 WNW 6 9 30.24 1024 30 48 N/A
11:50 pm 23:50 Mostly Clear 34 1 28 -2 81 81 W 5 7 30.24 1024 30 48 N/A

Powered by AerisWeather